[[{"header":{"parameterUnit":"m.s-1","parameterCategory":1,"la1":30.2991,"la2":30.254,"lo1":-89.0895,"lo2":-89.0444,"dy":0.0017,"dx":0.0017,"nx":28,"ny":28,"refTime":"2023-11-09T03:00:00:Z","depth":0,"parameterNumber":2,"parameterNumberName":"U-component_of_WINDS"},"data":[0,0,0,0,0,0,0,0,0,0,0,0,0,0,0,0,0,0,0,0,0,0,0,0,0,0,0,0,0,0,0,0,0,0,0,0,0,0,0,0,0,0,0,0,0,0,0,0,0,0,0,0,0,0,0,0,0,0,-1.5531,-1.5532,0,-1.5583,-1.5584,-1.5584,-1.5578,-1.5577,-1.5576,-1.5576,-1.5625,-1.5627,-1.5629,0,0,0,0,0,0,0,0,0,0,0,0,0,-1.5424,-1.5426,-1.5531,-1.5532,-1.5533,-1.5583,-1.5584,-1.5584,-1.5578,-1.5577,-1.5576,-1.5575,-1.5624,-1.5627,-1.5629,0,0,0,0,0,0,0,0,0,0,0,0,0,-1.5473,-1.5427,-1.5531,-1.5536,-1.5537,-1.5583,-1.5584,-1.5585,-1.5578,-1.5577,-1.5576,-1.5575,-1.5624,-1.5627,-1.563,-1.5674,0,0,-1.5639,-1.5641,0,0,0,0,0,0,0,0,-1.547,-1.5477,-1.5534,-1.5536,-1.5537,-1.5573,-1.5564,-1.5614,-1.5579,-1.5562,-1.5576,-1.5574,-1.5608,-1.5613,-1.5625,-1.5676,-1.5678,-1.5639,-1.5641,-1.5643,-1.5644,0,0,0,0,0,0,0,-1.5467,-1.5474,-1.5552,-1.5535,-1.5537,-1.5534,-1.554,-1.5573,-1.5592,-1.5564,-1.5563,-1.557,-1.5609,-1.5622,-1.5626,-1.5679,-1.5639,-1.5642,-1.5644,-1.5645,-1.5768,-1.5769,0,0,0,0,0,0,-1.5463,-1.5472,-1.555,-1.5553,-1.55,-1.5537,-1.5543,-1.5562,-1.5591,-1.5595,-1.5571,-1.5569,-1.5617,-1.5622,-1.5628,-1.568,-1.5643,-1.5646,-1.5647,-1.5766,-1.5768,-1.5769,0,0,0,0,0,0,-1.546,-1.547,-1.5548,-1.5512,-1.5522,-1.554,-1.5562,-1.5564,-1.5577,-1.5597,-1.5599,-1.5581,-1.5617,-1.5623,-1.5662,-1.5682,-1.5647,-1.565,-1.5765,-1.5767,-1.5769,-1.5786,0,0,0,0,0,0,-1.5457,-1.5469,-1.5486,-1.5513,-1.5524,-1.5582,-1.5563,-1.5566,-1.5583,-1.5582,-1.5607,-1.561,-1.5616,-1.5658,-1.5665,-1.5686,-1.5652,-1.5763,-1.5766,-1.5768,-1.5784,-1.5789,-1.5793,0,0,0,0,0,-1.5453,-1.5489,-1.5487,-1.5497,-1.5547,-1.5584,-1.559,-1.5597,-1.5585,-1.5602,-1.5614,-1.5609,-1.5679,-1.5662,-1.567,-1.5692,-1.5762,-1.5765,-1.5768,-1.5782,-1.5788,-1.5793,0,0,0,0,0,0,-1.5462,-1.5492,-1.5491,-1.5536,-1.5558,-1.5583,-1.5604,-1.5603,-1.5627,-1.5625,-1.5632,-1.5638,-1.5677,-1.5689,-1.5669,-1.5736,-1.5719,-1.5724,-1.5726,-1.5732,-1.5736,-1.5732,-1.5655,0,0,0,0,0,-1.547,-1.5499,-1.5523,-1.556,-1.5571,-1.5586,-1.5602,-1.5606,-1.5628,-1.5637,-1.5652,-1.5673,-1.5699,-1.5717,-1.5742,-1.5786,-1.5791,-1.5805,-1.581,-1.5813,-1.5817,-1.584,-1.5846,-1.578,-1.578,-1.578,0,0,-1.5485,-1.5505,-1.5522,-1.5562,-1.5579,-1.5608,-1.5593,-1.5624,-1.5645,-1.5641,-1.5679,-1.5691,-1.5715,-1.5756,-1.5775,-1.5767,-1.5837,-1.5817,-1.582,-1.5822,-1.5844,-1.585,-1.5856,-1.5782,-1.5781,-1.5781,0,0,-1.5526,-1.5545,-1.5578,-1.5596,-1.5623,-1.5633,-1.5641,-1.5666,-1.5674,-1.5713,-1.5711,-1.5735,-1.5781,-1.5798,-1.5812,-1.5862,-1.5857,-1.587,-1.5892,-1.5915,-1.592,-1.5924,-1.5941,-1.5947,-1.5874,-1.5874,-1.5874,0,-1.5541,-1.5585,-1.5595,-1.5626,-1.5643,-1.5643,-1.5676,-1.5692,-1.5725,-1.5737,-1.5728,-1.5785,-1.5801,-1.5846,-1.5858,-1.5871,-1.5879,-1.5866,-1.5919,-1.5923,-1.5928,-1.5943,-1.595,-1.5875,-1.5875,-1.5875,-1.5875,0,-1.5602,-1.5632,-1.5655,-1.5689,-1.5709,-1.5741,-1.5754,-1.5773,-1.5776,-1.5786,-1.5825,-1.5844,-1.5874,-1.5885,-1.5887,-1.593,-1.5924,-1.5917,-1.59,-1.5935,-1.595,-1.5956,-1.5877,-1.5876,-1.5876,-1.5876,0,0,-1.5648,-1.5688,-1.5696,-1.5711,-1.5741,-1.5764,-1.5796,-1.5826,-1.5841,-1.5865,-1.589,-1.593,-1.5924,-1.594,-1.5945,-1.5965,-1.6001,-1.5955,-1.5955,-1.5961,-1.6049,-1.6053,-1.606,-1.6,-1.6001,-1.6002,-1.6046,0,-1.5692,-1.5749,-1.5759,-1.5808,-1.5836,-1.5837,-1.5864,-1.5885,-1.5896,-1.592,-1.5932,-1.596,-1.595,-1.596,-1.598,-1.5993,-1.6019,-1.599,-1.6022,-1.6023,-1.6014,-1.6068,-1.6072,-1.6113,-1.6052,-1.6053,-1.6054,0,-1.575,-1.5776,-1.5828,-1.5855,-1.5867,-1.5891,-1.592,-1.5944,-1.5967,-1.5974,-1.5993,-1.5995,-1.6027,-1.601,-1.6053,-1.6033,-1.6048,-1.6056,-1.6058,-1.6059,-1.6039,-1.6069,-1.6126,-1.6132,-1.6063,-1.6063,-1.6062,0,-1.5777,-1.5825,-1.5863,-1.5876,-1.5908,-1.5925,-1.5939,-1.5962,-1.5979,-1.6004,-1.6015,-1.6042,-1.6057,-1.6078,-1.6087,-1.6074,-1.613,-1.6114,-1.6135,-1.6135,-1.6145,-1.6144,-1.6203,-1.6157,-1.6157,-1.6157,-1.6157,0,-1.5823,-1.5855,-1.5875,-1.5898,-1.5934,-1.5945,-1.5979,-1.5992,-1.6013,-1.6037,-1.604,-1.6063,-1.6075,-1.6099,-1.6107,-1.6141,-1.6148,-1.6153,-1.6154,-1.6152,-1.6151,-1.616,-1.6156,-1.6159,-1.6158,-1.6158,-1.6158,0,-1.5859,-1.5874,-1.5915,-1.5942,-1.595,-1.5975,-1.5998,-1.602,-1.6031,-1.6063,-1.607,-1.6088,-1.6117,-1.613,-1.6165,-1.617,-1.6209,-1.6209,-1.6201,-1.6201,-1.6221,-1.6218,-1.6287,-1.6296,-1.6245,-1.6246,-1.6246,0,-1.5886,-1.5911,-1.5942,-1.5959,-1.5974,-1.6002,-1.602,-1.6032,-1.6051,-1.608,-1.6098,-1.6127,-1.6151,-1.6197,-1.6213,-1.624,-1.6239,-1.6262,-1.6243,-1.624,-1.6238,-1.6236,-1.6237,-1.6264,-1.6265,-1.6265,-1.6265,0,-1.5934,-1.594,-1.5967,-1.5996,-1.6018,-1.6042,-1.6065,-1.6078,-1.6094,-1.6114,-1.6145,-1.6163,-1.62,-1.6229,-1.6257,-1.627,-1.627,-1.6272,-1.6278,-1.6274,-1.6268,-1.627,-1.6208,-1.6269,-1.6269,-1.6269,-1.6268,-1.6268,-1.5965,-1.5987,-1.6012,-1.6041,-1.606,-1.6082,-1.6103,-1.6119,-1.6144,-1.6176,-1.6181,-1.6213,-1.6236,-1.6274,-1.6289,-1.6314,-1.6308,-1.6317,-1.6319,-1.6321,-1.6321,-1.6266,-1.6319,-1.6319,-1.6319,-1.6319,-1.6319,0,-1.6011,-1.6027,-1.6055,-1.6087,-1.611,-1.611,-1.6136,-1.6154,-1.6183,-1.6205,-1.6229,-1.6264,-1.6292,-1.631,-1.6338,-1.6355,-1.6355,-1.6361,-1.6359,-1.6362,-1.6325,-1.6317,-1.636,-1.636,-1.636,-1.636,-1.636,-1.636,-1.6037,-1.6074,-1.6083,-1.6129,-1.6145,-1.6177,-1.6192,-1.6211,-1.6229,-1.6268,-1.6292,-1.6304,-1.6325,-1.6354,-1.638,-1.6385,-1.6394,-1.64,-1.6404,-1.6369,-1.6365,-1.6361,-1.6352,-1.6403,-1.6403,-1.6439,-1.6439,-1.644]},{"header":{"parameterUnit":"m.s-1","parameterCategory":1,"la1":30.2991,"la2":30.254,"lo1":-89.0895,"lo2":-89.0444,"dy":0.0017,"dx":0.0017,"nx":28,"ny":28,"refTime":"2023-11-09T03:00:00:Z","depth":0,"parameterNumber":3,"parameterNumberName":"V-component_of_WINDS"},"data":[0,0,0,0,0,0,0,0,0,0,0,0,0,0,0,0,0,0,0,0,0,0,0,0,0,0,0,0,0,0,0,0,0,0,0,0,0,0,0,0,0,0,0,0,0,0,0,0,0,0,0,0,0,0,0,0,0,0,3.2175,3.2176,0,3.2246,3.2247,3.2247,3.2331,3.2333,3.2334,3.2335,3.2404,3.2404,3.2405,0,0,0,0,0,0,0,0,0,0,0,0,0,3.2113,3.2114,3.2175,3.2176,3.2177,3.2246,3.2247,3.2248,3.2331,3.2333,3.2334,3.2336,3.2403,3.2404,3.2405,0,0,0,0,0,0,0,0,0,0,0,0,0,3.2157,3.2114,3.2175,3.2227,3.2233,3.2245,3.2247,3.2248,3.2331,3.2333,3.2335,3.2336,3.2403,3.2404,3.2405,3.2372,0,0,3.2408,3.2408,0,0,0,0,0,0,0,0,3.2155,3.216,3.2219,3.2224,3.223,3.2282,3.225,3.2289,3.233,3.2293,3.2335,3.2337,3.2361,3.2366,3.2375,3.2375,3.2378,3.2408,3.2409,3.2409,3.2409,0,0,0,0,0,0,0,3.2152,3.2157,3.2203,3.2219,3.2226,3.2247,3.2255,3.2258,3.2315,3.2297,3.2303,3.231,3.2365,3.2374,3.2377,3.2379,3.2408,3.2409,3.2409,3.241,3.236,3.2358,0,0,0,0,0,0,3.2141,3.2154,3.2201,3.2205,3.2196,3.2246,3.2256,3.2263,3.2316,3.2326,3.2309,3.2314,3.2371,3.2376,3.238,3.2347,3.2409,3.241,3.241,3.2362,3.2359,3.2357,0,0,0,0,0,0,3.2139,3.2144,3.2198,3.2181,3.219,3.2245,3.2253,3.2263,3.2272,3.2325,3.2335,3.2307,3.2373,3.2378,3.2374,3.2351,3.241,3.2411,3.2364,3.2361,3.2358,3.228,0,0,0,0,0,0,3.2137,3.2143,3.2131,3.2181,3.219,3.2191,3.2251,3.2263,3.2274,3.2282,3.2326,3.2335,3.2375,3.2372,3.2375,3.2353,3.2412,3.2366,3.2363,3.2359,3.2285,3.2275,3.2266,0,0,0,0,0,3.2135,3.2104,3.213,3.2135,3.2176,3.219,3.2195,3.2243,3.2272,3.226,3.2295,3.2334,3.2353,3.2371,3.2375,3.2353,3.2368,3.2364,3.236,3.2289,3.2277,3.2266,0,0,0,0,0,0,3.2048,3.2112,3.2141,3.2125,3.2152,3.2204,3.2191,3.2227,3.2245,3.2251,3.2308,3.2317,3.2307,3.2329,3.2349,3.2325,3.2366,3.2363,3.2311,3.23,3.2291,3.2286,3.2412,0,0,0,0,0,3.2028,3.2034,3.2089,3.207,3.2082,3.2134,3.2141,3.2176,3.2205,3.2216,3.225,3.2276,3.2289,3.2295,3.2309,3.2288,3.2301,3.2275,3.2266,3.2258,3.2254,3.2248,3.2239,3.2343,3.2344,3.2344,0,0,3.1984,3.202,3.202,3.2054,3.2078,3.2084,3.2143,3.2145,3.215,3.2216,3.2216,3.2242,3.2275,3.2263,3.226,3.2282,3.2228,3.2252,3.2246,3.2247,3.2243,3.2233,3.2224,3.2341,3.2341,3.2342,0,0,3.191,3.1936,3.1926,3.195,3.1988,3.2023,3.202,3.2068,3.2088,3.2089,3.214,3.2147,3.2165,3.2189,3.2202,3.2141,3.2178,3.2143,3.2095,3.2088,3.208,3.2073,3.2054,3.2046,3.2139,3.2139,3.2139,0,3.1851,3.1863,3.1915,3.1916,3.1931,3.1993,3.1984,3.2004,3.2043,3.2052,3.2076,3.2105,3.2131,3.2127,3.2113,3.2121,3.2121,3.2139,3.2077,3.2071,3.2065,3.2047,3.2039,3.2135,3.2135,3.2136,3.2136,0,3.1791,3.1798,3.1785,3.1824,3.1837,3.1832,3.1885,3.1891,3.1925,3.1958,3.196,3.1994,3.2018,3.202,3.2051,3.2022,3.2034,3.2067,3.2109,3.205,3.2034,3.2027,3.2129,3.213,3.2132,3.2133,0,0,3.1662,3.1733,3.1728,3.1748,3.1795,3.1802,3.1801,3.1827,3.1833,3.1858,3.186,3.1877,3.1909,3.1924,3.196,3.1954,3.1907,3.1988,3.199,3.1974,3.1879,3.1856,3.1847,3.1932,3.1931,3.193,3.1877,0,3.1597,3.1601,3.165,3.164,3.1649,3.171,3.171,3.1739,3.1771,3.1783,3.1818,3.183,3.1869,3.188,3.1877,3.1913,3.1889,3.1917,3.1935,3.1935,3.1927,3.1838,3.1813,3.1762,3.1871,3.187,3.1869,0,3.1522,3.1547,3.1538,3.159,3.1596,3.1594,3.1624,3.1634,3.167,3.1693,3.1713,3.1754,3.1758,3.1798,3.1805,3.1823,3.1834,3.1853,3.1852,3.1857,3.19,3.1842,3.1746,3.1739,3.186,3.1861,3.1861,0,3.1433,3.1463,3.1463,3.1478,3.1538,3.1536,3.1561,3.1598,3.1612,3.1637,3.1646,3.167,3.1684,3.1702,3.175,3.1773,3.1752,3.1795,3.1773,3.1772,3.1767,3.1766,3.1672,3.177,3.177,3.177,3.177,0,3.1357,3.135,3.1425,3.1424,3.142,3.1476,3.147,3.15,3.1533,3.1541,3.1594,3.16,3.1661,3.1675,3.1711,3.1713,3.1718,3.1738,3.1748,3.1735,3.1732,3.1743,3.1749,3.1768,3.1769,3.1769,3.1769,0,3.1256,3.1305,3.131,3.1367,3.1382,3.1375,3.1425,3.1427,3.1463,3.1473,3.1478,3.1534,3.1553,3.1602,3.1632,3.1657,3.165,3.1667,3.1638,3.1645,3.1622,3.1624,3.1532,3.1524,3.1624,3.1623,3.1622,0,3.1205,3.1202,3.126,3.127,3.1293,3.1307,3.1322,3.1378,3.1392,3.1434,3.1432,3.1456,3.1478,3.1505,3.1548,3.1572,3.1592,3.1559,3.1596,3.1584,3.1595,3.1595,3.1596,3.155,3.1549,3.1548,3.1547,0,3.111,3.1136,3.1156,3.1186,3.1203,3.1228,3.1256,3.1261,3.1325,3.1337,3.1358,3.1375,3.1409,3.1432,3.1464,3.1489,3.1529,3.1535,3.1532,3.1518,3.1503,3.1514,3.1618,3.1537,3.1538,3.1539,3.1539,3.154,3.1035,3.1036,3.1079,3.11,3.1128,3.1154,3.1161,3.1199,3.1218,3.1251,3.1283,3.1301,3.134,3.1387,3.141,3.1426,3.1446,3.144,3.1439,3.1438,3.1433,3.1499,3.1431,3.1432,3.1432,3.1432,3.1432,0,3.0946,3.0977,3.0996,3.1036,3.1053,3.1091,3.1125,3.1137,3.1153,3.1186,3.1208,3.1234,3.1257,3.1304,3.1332,3.1335,3.1355,3.1341,3.1342,3.1348,3.1411,3.1413,3.1325,3.1325,3.1325,3.1325,3.1325,3.1325,3.0901,3.0907,3.0938,3.0959,3.099,3.101,3.1027,3.1052,3.1079,3.1106,3.1127,3.1158,3.1197,3.1229,3.1253,3.1266,3.1275,3.1255,3.1274,3.1333,3.1343,3.1353,3.1354,3.1256,3.1256,3.121,3.121,3.1209]}]]